星链-3566 (STARLINK-3566 )

导读

STARLINK-3566是美国太空探索技术公司(SpaceX)星链(Starlink)星座中的卫星,于2022年3月3日发射,加入星链低轨互联网星座组网,为全球提供高速卫星互联网服务,尤其覆盖偏远地区及网络基础设施薄弱区域。目前该卫星已在轨道运行四年,是星链持续扩容星座网络的组成部分。

基本信息
目录编号:
51880
目录名称:
STARLINK-3566
国际标识:
2022-022AE
轨道中心:
EARTH
卫星名称:
星链-3566
卫星全名:
星链-3566 (STARLINK-3566 )
卫星状态:
在轨 (已飞行1567 天)
发射日期:
2022-03-03 UTC
国别 :
美国 (US)
星等 :
--
轨道信息
数据来源 国际轨道数据 AOE轨道数据
星历时间 2026-06-17T19:50:27+0800
5小时前
查看轨道信息
2026-06-12T15:00:00+0800
5天前
查看轨道信息
半长轴 6917.901km 6917.911km
偏心率 0.0001236 0.0001103
轨道倾角 53.161° 53.159°
近地点辐角 78.145° 36.443°
升交点赤经 280.704° 304.089°
平近点角 281.968° 133.536°
近地点 538.908km 539.01km
远地点 540.62km 540.538km
周期 95.438分钟 95.438分钟
每日圈数 15.088334 15.0883
详细信息
固有亮度:
5
最大亮度:
2.5
卫星平台:
Starlink v1.5
覆盖范围:
全球
运营商:
太空探索技术公司
运营商所在国:
美国
制造商(研发单位):
太空探索技术公司
制造商所在国:
美国
使用方式:
暂无
卫星简介
星链(Starlink)计划是由太空探索技术公司(SpaceX)提出的一个巨型低轨卫星互联网星座项目,计划在2019年至2024年间在太空搭建由约1.2万颗卫星组成的“星链”网络,其中1584颗将部署在地球上空550千米处的近地轨道,并从2020年开始工作。该卫星仍在工作。
2D轨道图
3D轨道图
轨道高度分析图
轨道倾角分析图
轨道综合分析图
查看轨道综合分析图